Flag for United Kingdom Weather past 2 weeks in Weymouth, England, United Kingdom

Now
53 °F

Smoke.


Feels Like: 47 °F
Forecast: N/A
Wind: 29 mph from West

Location: Isle Of Portland

Current Time: Dec 22, 2014 at 8:56:14 PM

Latest Report: Dec 22, 2014 at 8:00 PM


Visibility: 6 mi

Pressure: 30.16 "Hg

Humidity: 77%

Dew point: 46 °F

Location of WeymouthLocation

Historic Weather in Weymouth — Graph

°F

Weymouth temperature yesterday

Maximum temperature yesterday: 53 °F (at 10:00 PM)
Minimum temperature yesterday: 48 °F (at 6:00 AM)
Average temperature yesterday: 50 °F

Past Weeks' High & Low Weather Summary

 TemperatureHumidityPressure
High54 °F (Dec 10, 12:00 AM)97% (Dec 22, 4:00 AM)30.50 "Hg (Dec 22, 4:00 AM)
Low39 °F (Dec 13, 8:00 AM)58% (Dec 8, 1:00 PM)29.32 "Hg (Dec 12, 7:00 AM)
Average49 °F79%30.04 "Hg
* Reported Dec 7 7:00 PM — Dec 22 7:00 PM, Weymouth, Weather by CustomWeather, © 2014

Note: Actual official high and low records may vary slightly from our data, if they occured in-between our weather recording intervals... More about our weather records

Advertising

Weymouth weather history for previous 24 hours

 ConditionsComfort  
Time TempWeatherWind HumidityBarometerVisibility
7:00 PM
Dec 22
53 °FSmoke.24 mph79%30.17 "Hg5 mi
3:00 PM53 °FSmoke.26 mph86%30.16 "Hg4 mi
2:00 PM53 °FSmoke.28 mph84%30.17 "Hg5 mi
1:00 PM53 °FSmoke.30 mph84%30.18 "Hg4 mi
12:00 PM53 °FSmoke.30 mph84%30.19 "Hg6 mi
11:00 AM53 °FSmoke.31 mph84%30.21 "Hg6 mi
10:00 AM53 °FSmoke.25 mph89%30.20 "Hg4 mi
9:00 AM53 °FSmoke.26 mph89%30.20 "Hg5 mi
8:00 AM53 °FSmoke.25 mph92%30.20 "Hg4 mi
7:00 AM53 °FCool.24 mph97%30.20 "Hg4 mi
6:00 AM53 °FDrizzle. Overcast.29 mph97%30.19 "Hg2 mi
5:00 AM53 °FCool.29 mph97%30.19 "Hg2 mi
4:00 AM53 °FDrizzle. Overcast.29 mph97%30.20 "Hg1 mi
3:00 AM53 °FFog.31 mph96%30.22 "Hg2 mi
2:00 AM53 °FFog.31 mph95%30.22 "Hg4 mi
1:00 AM53 °FCool.32 mph95%30.24 "Hg3 mi
12:00 AM53 °FFog.31 mph94%30.26 "Hg5 mi
11:00 PM
Dec 21
53 °FFog.31 mph94%30.27 "Hg3 mi
10:00 PM53 °FSmoke.35 mph93%30.27 "Hg4 mi
8:00 PM52 °FCool.29 mph94%30.32 "Hg3 mi
Weather by CustomWeather, © 2014

See weather overviewHow to use our weather pages